Weather History for KC09 - October, 2013

Change the Weather History Date:

Monday, October 7, 2013

  Actual Average (KLOT) Record (KLOT)
Temperature  
Mean Temperature 56 °F 56 °F  
Max Temperature 71 °F 67 °F 89 °F (2007)
Min Temperature 42 °F 46 °F 28 °F (2001)
Degree Days  
Heating Degree Days 8 10  
Month to date heating degree days 61  
Since 1 July heating degree days 160  
Cooling Degree Days 0 1  
Month to date cooling degree days 7  
Year to date cooling degree days 854  
Growing Degree Days 6 (Base 50)    
Moisture  
Dew Point 41 °F    
Average Humidity 63    
Maximum Humidity 95    
Minimum Humidity 26    
Precipitation  
Precipitation 0.00 in 0.10 in 0.82 in (2008)
Month to date precipitation 0.75  
Year to date precipitation 31.70  
Snow  
Snow 0.00 in 0.00 in - ()
Month to date snowfall 0.0  
Since 1 July snowfall 0.0  
Since 1 September snowfall 0.0  
Snow Depth -    
Sea Level Pressure  
Sea Level Pressure 29.94 in    
Wind  
Wind Speed 8 mph (West)    
Max Wind Speed 17 mph    
Max Gust Speed 23 mph    
Visibility 10 miles    
Events      
T = Trace of Precipitation, MM = Missing Value Source: NWS Daily Summary

Daily Weather History Graph

Daily Weather History Graph

Search for Another Location

Airport or City:

Trip Planner

Search our weather history database for the weather conditions in past years. The results will help you decide how hot, cold, wet, or windy it might be!

Date:

Astronomy

Oct. 07, 2013 Rise Set
Actual Time 6:57 AM CDT 6:25 PM CDT
Civil Twilight 6:29 AM CDT 6:52 PM CDT
Nautical Twilight 5:57 AM CDT 7:24 PM CDT
Astronomical Twilight 5:25 AM CDT 7:56 PM CDT
Moon 9:48 AM CDT (10/7) 8:07 PM CDT (10/7)
Length of Visible Light 12h 23m
Length of Day
11h 27m
Waxing Crescent, 9% of the Moon is Illuminated
Oct 7
Waxing Crescent
Oct 11
First Quarter
Oct 18
Full
Oct 26
Last Quarter
Nov 3
New

Hourly Weather History & Observations

Time (CDT) Temp. Windchill Dew Point Humidity Pressure Visibility Wind Dir Wind Speed Gust Speed Precip Events Conditions
12:15 AM 46.0 °F 43.1 °F 40.6 °F 81% 29.79 in 10.0 mi West 5.8 mph - N/A   Overcast
12:35 AM 45.0 °F 41.8 °F 40.8 °F 85% 29.79 in 10.0 mi West 5.8 mph - N/A   Scattered Clouds
12:55 AM 44.1 °F 40.8 °F 41.4 °F 90% 29.80 in 10.0 mi West 5.8 mph - N/A   Clear
1:15 AM 43.9 °F 42.3 °F 41.4 °F 91% 29.80 in 10.0 mi West 3.5 mph - N/A   Mostly Cloudy
1:35 AM 44.6 °F 43.1 °F 42.3 °F 91% 29.81 in 10.0 mi West 3.5 mph - N/A   Overcast
1:55 AM 44.4 °F 42.0 °F 41.9 °F 91% 29.81 in 10.0 mi WSW 4.6 mph - N/A   Mostly Cloudy
2:15 AM 43.7 °F 40.3 °F 41.5 °F 92% 29.81 in 10.0 mi West 5.8 mph - N/A   Scattered Clouds
2:35 AM 44.4 °F 41.2 °F 42.6 °F 93% 29.80 in 10.0 mi West 5.8 mph - N/A   Mostly Cloudy
2:55 AM 45.0 °F 40.1 °F 42.8 °F 92% 29.81 in 10.0 mi West 9.2 mph - N/A   Overcast
3:15 AM 45.0 °F 40.6 °F 42.8 °F 92% 29.81 in 10.0 mi West 8.1 mph - N/A   Overcast
3:35 AM 45.0 °F 40.6 °F 42.4 °F 91% 29.81 in 10.0 mi West 8.1 mph - N/A   Overcast
3:55 AM 45.0 °F 39.3 °F 42.3 °F 90% 29.83 in 10.0 mi West 11.5 mph - N/A   Overcast
4:15 AM 44.8 °F 41.0 °F 42.1 °F 90% 29.83 in 10.0 mi West 6.9 mph - N/A   Mostly Cloudy
4:35 AM 45.1 °F 40.3 °F 42.8 °F 91% 29.83 in 10.0 mi WSW 9.2 mph - N/A   Overcast
4:55 AM 45.0 °F 39.7 °F 42.3 °F 90% 29.83 in 10.0 mi West 10.4 mph - N/A   Overcast
5:15 AM 44.4 °F 39.5 °F 41.9 °F 91% 29.84 in 10.0 mi West 9.2 mph - N/A   Mostly Cloudy
5:35 AM 43.9 °F 39.3 °F 41.9 °F 93% 29.85 in 10.0 mi WSW 8.1 mph - N/A   Scattered Clouds
5:55 AM 43.5 °F 40.1 °F 41.5 °F 93% 29.84 in 10.0 mi WSW 5.8 mph - N/A   Clear
6:15 AM 42.8 °F 39.3 °F 41.0 °F 93% 29.85 in 10.0 mi WSW 5.8 mph - N/A   Clear
6:35 AM 43.0 °F 38.8 °F 41.5 °F 95% 29.85 in 10.0 mi WSW 6.9 mph - N/A   Scattered Clouds
6:55 AM 44.8 °F 39.0 °F 43.3 °F 95% 29.86 in 10.0 mi West 11.5 mph - N/A   Overcast
7:15 AM 46.4 °F 41.5 °F 44.8 °F 94% 29.86 in 5.0 mi West 10.4 mph - N/A   Overcast
7:35 AM 46.9 °F - 45.0 °F 93% 29.87 in 4.0 mi West 10.4 mph - N/A   Overcast
7:55 AM 47.7 °F - 45.7 °F 93% 29.89 in 2.0 mi West 12.7 mph - N/A   Light Drizzle
8:15 AM 48.2 °F - 46.4 °F 93% 29.89 in 1.5 mi West 10.4 mph 16.1 mph N/A   Light Drizzle
8:35 AM 48.7 °F - 47.1 °F 94% 29.90 in 5.0 mi West 10.4 mph - N/A   Overcast
8:55 AM 49.8 °F - 48.0 °F 94% 29.91 in 10.0 mi West 11.5 mph - N/A   Overcast
9:15 AM 51.1 °F - 48.2 °F 90% 29.91 in 10.0 mi West 11.5 mph - N/A   Overcast
9:35 AM 53.2 °F - 45.7 °F 76% 29.92 in 10.0 mi WNW 13.8 mph 17.3 mph N/A   Mostly Cloudy
9:55 AM 54.3 °F - 44.1 °F 68% 29.93 in 10.0 mi WNW 13.8 mph 18.4 mph N/A   Mostly Cloudy
10:15 AM 56.7 °F - 43.5 °F 61% 29.94 in 10.0 mi WNW 13.8 mph 18.4 mph N/A   Scattered Clouds
10:35 AM 58.3 °F - 43.3 °F 58% 29.95 in 10.0 mi WNW 12.7 mph - N/A   Clear
10:55 AM 59.4 °F - 42.4 °F 54% 29.96 in 10.0 mi WNW 12.7 mph 23.0 mph N/A   Scattered Clouds
11:15 AM 60.6 °F - 41.5 °F 49% 29.96 in 10.0 mi NW 9.2 mph 18.4 mph N/A   Clear
11:35 AM 61.7 °F - 40.6 °F 46% 29.97 in 10.0 mi NW 9.2 mph 18.4 mph N/A   Clear
11:55 AM 62.8 °F - 40.1 °F 43% 29.97 in 10.0 mi West 12.7 mph 20.7 mph N/A   Clear
12:15 PM 63.3 °F - 39.7 °F 42% 29.97 in 10.0 mi West 17.3 mph 20.7 mph N/A   Clear
12:35 PM 64.9 °F - 39.7 °F 40% 29.98 in 10.0 mi West 12.7 mph 20.7 mph N/A   Clear
12:55 PM 65.8 °F - 38.8 °F 37% 29.98 in 10.0 mi NW 12.7 mph 18.4 mph N/A   Clear
1:15 PM 66.7 °F - 36.5 °F 33% 29.97 in 10.0 mi NW 9.2 mph 18.4 mph N/A   Clear
1:35 PM 67.8 °F - 37.0 °F 32% 29.97 in 10.0 mi West 15.0 mph - N/A   Clear
1:55 PM 68.2 °F - 37.9 °F 33% 29.97 in 10.0 mi West 12.7 mph 17.3 mph N/A   Clear
2:15 PM 68.5 °F - 36.7 °F 31% 29.97 in 10.0 mi NW 9.2 mph 18.4 mph N/A   Clear
2:35 PM 68.4 °F - 37.0 °F 32% 29.98 in 10.0 mi WNW 12.7 mph 19.6 mph N/A   Clear
2:55 PM 68.9 °F - 35.8 °F 30% 29.98 in 10.0 mi NW 11.5 mph 20.7 mph N/A   Clear
3:15 PM 70.0 °F - 35.2 °F 28% 29.98 in 10.0 mi WNW 13.8 mph 20.7 mph N/A   Clear
3:35 PM 70.7 °F - 35.2 °F 27% 29.97 in 10.0 mi West 10.4 mph 16.1 mph N/A   Clear
3:55 PM 70.9 °F - 34.2 °F 26% 29.97 in 10.0 mi WNW 11.5 mph 19.6 mph N/A   Scattered Clouds
4:15 PM 71.1 °F - 34.5 °F 26% 29.98 in 10.0 mi West 12.7 mph 19.6 mph N/A   Scattered Clouds
4:35 PM 70.3 °F - 35.2 °F 28% 29.98 in 10.0 mi WNW 16.1 mph 20.7 mph N/A   Scattered Clouds
4:55 PM 70.0 °F - 34.2 °F 27% 29.98 in 10.0 mi WNW 11.5 mph - N/A   Clear
5:15 PM 68.7 °F - 35.6 °F 30% 29.98 in 10.0 mi West 8.1 mph 16.1 mph N/A   Clear
5:35 PM 69.1 °F - 36.5 °F 30% 29.99 in 10.0 mi West 5.8 mph - N/A   Clear
5:55 PM 68.4 °F - 37.2 °F 32% 29.99 in 10.0 mi West 6.9 mph - N/A   Scattered Clouds
6:15 PM 65.1 °F - 38.5 °F 37% 30.00 in 10.0 mi West 4.6 mph - N/A   Scattered Clouds
6:35 PM 63.7 °F - 38.7 °F 40% 30.00 in 10.0 mi West 5.8 mph - N/A   Clear
6:55 PM 62.2 °F - 39.0 °F 42% 30.01 in 10.0 mi West 4.6 mph - N/A   Clear
7:15 PM 61.3 °F - 39.2 °F 44% 30.01 in 10.0 mi West 4.6 mph - N/A   Clear
7:35 PM 58.3 °F - 40.6 °F 52% 30.02 in 10.0 mi SW 6.9 mph - N/A   Clear
7:55 PM 57.7 °F - 40.3 °F 52% 30.02 in 10.0 mi SW 4.6 mph - N/A   Clear
8:15 PM 57.2 °F - 40.5 °F 54% 30.03 in 10.0 mi SW 4.6 mph - N/A   Clear
8:35 PM 58.3 °F - 40.5 °F 52% 30.04 in 10.0 mi SSW 3.5 mph - N/A   Clear
8:55 PM 56.7 °F - 41.4 °F 57% 30.04 in 10.0 mi SW 5.8 mph - N/A   Clear
9:15 PM 56.5 °F - 41.9 °F 58% 30.05 in 10.0 mi SW 4.6 mph - N/A   Clear
9:35 PM 57.2 °F - 41.9 °F 57% 30.05 in 10.0 mi SW 3.5 mph - N/A   Clear
9:55 PM 55.0 °F - 41.9 °F 61% 30.06 in 10.0 mi Calm Calm - N/A   Clear
10:15 PM 55.6 °F - 42.4 °F 61% 30.06 in 10.0 mi SW 3.5 mph - N/A   Clear
10:35 PM 54.1 °F - 42.8 °F 66% 30.07 in 10.0 mi SSW 3.5 mph - N/A   Clear
10:55 PM 54.5 °F - 42.1 °F 63% 30.07 in 10.0 mi SW 5.8 mph - N/A   Clear
11:15 PM 53.8 °F - 41.9 °F 64% 30.08 in 10.0 mi SW 4.6 mph - N/A   Clear
11:35 PM 53.6 °F - 41.9 °F 65% 30.08 in 10.0 mi SW 3.5 mph - N/A   Clear
11:55 PM 53.2 °F - 42.1 °F 66% 30.09 in 10.0 mi Calm Calm - N/A   Clear